Location: *
(38.3914°N, 75.0697°W)
Time: 08:19:16
(UTC+00:00)

First-Move - Visible Passes

Search period start: 11 May 2021 00:00
Search period end: 21 May 2021 00:00
Orbit: 577 x 665 km, 97.6° (Epoch: 10 May)

Date Brightness Start Highest point End Pass type
(mag) Time Alt. Az. Time Alt. Az. Time Alt. Az.
11 May ? 09:18:06 10° NNE 09:22:10 31° E 09:26:08 10° SSE visible
14 May ? 08:37:42 10° ENE 08:38:34 10° E 08:39:27 10° E visible
15 May ? 08:53:28 10° NE 08:56:24 17° E 08:59:16 10° SE visible
16 May ? 09:10:24 10° NE 09:14:11 26° E 09:17:52 10° SSE visible
20 May ? 08:46:06 10° ENE 08:48:21 14° E 08:50:34 10° ESE visible
